Location: ?ejeti?ky
(50.4060°N, 14.9016°E)
Time: 00:19:26
(UTC+00:00)

STARLINK-1282 - Pass Details

Date: 05 October 2020
Orbit: 549 x 551 km, 53.0° (Epoch: 27 October)

Event Time Altitude Azimuth Distance (km) Brightness Sun altitude
Exits shadow 02:23:20 18° 137° (SE) 1,367 5.7 -26.2°
Maximum altitude 02:23:28 18° 135° (SE) 1,366 5.8 -26.2°
Drops below altitude 10° 02:26:20 10° 91° (E) 1,825 7.1 -25.8°
Sets 02:29:06 0° 73° (ENE) 2,723 8.5 -25.4°
